DRAGONFLY

Last updated on Sun Dec 14 2025 00:02:12 GMT+0000 (Coordinated Universal Time)

1 65729U 98067XH 25346.67493080 .00219639 00000+0 16127-2 0 9994 2 65729 51.6248 136.0967 0006787 276.9077 83.1148 15.71879709 13154
UTC large
Height (km)
Speed (km/s)
/
Latitude / Longitude
Inclination (degrees)
Orbital Period (minutes)
Azimuth
Elevation
Range (km)
Doppler Factor

Next 0 passes for location: London (51.5072 / 0.1276)

Sorry there are no passes over London.